Smyrna, TN (MQY)

CessnaPCRedbird FMX


Wings of Eagles Aviation started in Smyrna (MQY) in 1998 as a small flight school. The Smyrna Airport is the third largest airport in the state of Tennessee and the busiest general aviation airport. With its longest runway being just over 8,000 feet and having its own air traffic control tower, this is the best possible training environment for all pilots. Once you learn how to fly here, you will be confident no matter where your aviation adventures take you.

Address:
276 Doug Warpoole Rd.
Smyrna, TN 37167

Phone: (615) 355-0033

Business Hours:
Monday-Sunday 7a-10p


NOAA Weather – KMQY

Smyrna, TN

Last Updated on Oct 31 2014, 11:56 am CDT

Current Conditions: Overcast

NOAA Icon

Temp: 52°F

Wind: North at 6mph

Humidity: 83%

Windchill: 50°F

Your 5-Day Forecast at a Glance

Available data for KMQY from the past hour

METAR
KMQY 311717Z 34012G16KT 10SM BKN018 OVC030 11/08 A3002 RMK AO2
KMQY 311656Z 36006KT 10SM OVC030 11/08 A3003 RMK AO2 T01110083 SLP179
PIREPS 50sm
BNA UA /OV BNA270015/TM 1740/FL030/TP B737/SK OVC030-TOP100/RM DURD
FYM UA /OV JWN-RQZ360012/TM 1710/FL070/TP M20P/SK OVC025-TOP070/WX FV99SM/TA 02/WV 30037KT/TB NEG/IC NEG/RM DURC BKN075-080